Time,TemperatureF,DewpointF,PressureIn,WindDirection,WindDirectionDegrees,WindSpeedMPH,WindSpeedGustMPH,Humidity,HourlyPrecipIn,Conditions,Clouds,dailyrainin,SoftwareType,DateUTC
2013-11-23 00:02:00,52.7,51.0,30.29,NNW,331,6.0,-999.0,92,-99.99,,,0.01,weatherlink.com 1.10,2013-11-23 06:02:00,
2013-11-23 00:17:00,52.4,51.0,30.30,NW,318,6.0,-999.0,93,-99.99,,,0.01,weatherlink.com 1.10,2013-11-23 06:17:00,
2013-11-23 00:32:00,52.2,50.0,30.30,NNW,327,10.0,-999.0,93,-99.99,,,0.01,weatherlink.com 1.10,2013-11-23 06:32:00,
2013-11-23 00:48:00,51.6,50.0,30.29,North,360,8.0,-999.0,93,-99.99,,,0.01,weatherlink.com 1.10,2013-11-23 06:48:00,
2013-11-23 01:03:00,51.3,49.0,30.30,NW,325,5.0,-999.0,93,-99.99,,,0.01,weatherlink.com 1.10,2013-11-23 07:03:00,
2013-11-23 01:18:00,51.2,49.0,30.29,NW,324,3.0,-999.0,93,-99.99,,,0.01,weatherlink.com 1.10,2013-11-23 07:18:00,
2013-11-23 01:33:00,51.0,49.0,30.29,NW,321,0.0,-999.0,93,-99.99,,,0.01,weatherlink.com 1.10,2013-11-23 07:33:00,
2013-11-23 01:48:00,50.9,49.0,30.27,NW,309,2.0,-999.0,93,-99.99,,,0.01,weatherlink.com 1.10,2013-11-23 07:48:00,
2013-11-23 02:03:00,50.8,49.0,30.27,NNW,342,2.0,-999.0,93,-99.99,,,0.01,weatherlink.com 1.10,2013-11-23 08:03:00,
2013-11-23 02:18:00,50.6,49.0,30.27,NW,318,2.0,-999.0,93,-99.99,,,0.01,weatherlink.com 1.10,2013-11-23 08:18:00,
2013-11-23 02:33:00,50.5,49.0,30.27,NW,321,5.0,-999.0,93,-99.99,,,0.01,weatherlink.com 1.10,2013-11-23 08:33:00,
2013-11-23 02:48:00,50.4,49.0,30.26,North,5,5.0,-999.0,93,-99.99,,,0.00,weatherlink.com 1.10,2013-11-23 08:48:00,
2013-11-23 03:03:00,50.3,48.0,30.26,NW,316,3.0,-999.0,93,-99.99,,,0.00,weatherlink.com 1.10,2013-11-23 09:03:00,
2013-11-23 03:18:00,50.1,48.0,30.26,NW,319,8.0,-999.0,93,-99.99,,,0.00,weatherlink.com 1.10,2013-11-23 09:18:00,
2013-11-23 03:33:00,49.9,48.0,30.26,NNW,339,3.0,-999.0,93,-99.99,,,0.00,weatherlink.com 1.10,2013-11-23 09:33:00,
2013-11-23 03:48:00,49.7,48.0,30.27,NNW,338,4.0,-999.0,93,-99.99,,,0.00,weatherlink.com 1.10,2013-11-23 09:48:00,
2013-11-23 04:03:00,49.6,48.0,30.27,NNW,331,5.0,-999.0,93,-99.99,,,0.00,weatherlink.com 1.10,2013-11-23 10:03:00,
2013-11-23 04:18:00,49.6,48.0,30.28,NW,310,5.0,-999.0,93,-99.99,,,0.00,weatherlink.com 1.10,2013-11-23 10:18:00,
2013-11-23 04:33:00,49.3,47.0,30.28,NNW,328,8.0,-999.0,93,-99.99,,,0.00,weatherlink.com 1.10,2013-11-23 10:33:00,
2013-11-23 04:48:00,48.9,47.0,30.29,NNW,328,7.0,-999.0,93,-99.99,,,0.00,weatherlink.com 1.10,2013-11-23 10:48:00,
2013-11-23 05:03:00,48.7,47.0,30.28,WNW,300,4.0,-999.0,93,-99.99,,,0.00,weatherlink.com 1.10,2013-11-23 11:03:00,
2013-11-23 05:18:00,48.5,47.0,30.29,NNW,332,8.0,-999.0,93,-99.99,,,0.00,weatherlink.com 1.10,2013-11-23 11:18:00,
2013-11-23 05:33:00,48.5,47.0,30.29,North,355,6.0,-999.0,93,-99.99,,,0.00,weatherlink.com 1.10,2013-11-23 11:33:00,
2013-11-23 05:48:00,48.2,46.0,30.29,NNE,26,3.0,-999.0,93,-99.99,,,0.00,weatherlink.com 1.10,2013-11-23 11:48:00,
2013-11-23 06:03:00,48.1,46.0,30.30,NNW,342,4.0,-999.0,93,-99.99,,,0.00,weatherlink.com 1.10,2013-11-23 12:03:00,
2013-11-23 06:18:00,47.9,46.0,30.31,NW,320,8.0,-999.0,93,-99.99,,,0.00,weatherlink.com 1.10,2013-11-23 12:18:00,
2013-11-23 06:33:00,47.3,45.0,30.33,NW,317,10.0,-999.0,93,-99.99,,,0.00,weatherlink.com 1.10,2013-11-23 12:33:00,
2013-11-23 06:48:00,47.0,45.0,30.33,NW,313,7.0,-999.0,93,-99.99,,,0.00,weatherlink.com 1.10,2013-11-23 12:48:00,
2013-11-23 07:03:00,46.7,45.0,30.34,North,355,10.0,-999.0,93,-99.99,,,0.00,weatherlink.com 1.10,2013-11-23 13:03:00,
2013-11-23 07:18:00,46.6,45.0,30.34,NW,313,4.0,-999.0,93,-99.99,,,0.00,weatherlink.com 1.10,2013-11-23 13:18:00,
2013-11-23 07:33:00,46.5,44.0,30.35,NW,321,7.0,-999.0,92,-99.99,,,0.00,weatherlink.com 1.10,2013-11-23 13:33:00,
2013-11-23 07:48:00,46.3,44.0,30.35,North,355,5.0,-999.0,92,-99.99,,,0.00,weatherlink.com 1.10,2013-11-23 13:48:00,
2013-11-23 08:03:00,46.1,44.0,30.36,NNW,331,5.0,-999.0,92,-99.99,,,0.00,weatherlink.com 1.10,2013-11-23 14:03:00,
2013-11-23 08:18:00,46.1,44.0,30.36,North,350,7.0,-999.0,92,-99.99,,,0.00,weatherlink.com 1.10,2013-11-23 14:18:00,
2013-11-23 08:33:00,46.0,44.0,30.36,North,5,5.0,-999.0,91,-99.99,,,0.00,weatherlink.com 1.10,2013-11-23 14:33:00,
2013-11-23 08:48:00,46.5,44.0,30.36,NNW,342,3.0,-999.0,91,-99.99,,,0.00,weatherlink.com 1.10,2013-11-23 14:48:00,
2013-11-23 09:03:00,46.3,44.0,30.36,NNW,339,3.0,-999.0,91,-99.99,,,0.00,weatherlink.com 1.10,2013-11-23 15:03:00,
2013-11-23 09:18:00,46.0,43.0,30.36,North,355,10.0,-999.0,90,-99.99,,,0.00,weatherlink.com 1.10,2013-11-23 15:18:00,
2013-11-23 09:34:00,46.1,43.0,30.36,NW,315,6.0,-999.0,90,-99.99,,,0.00,weatherlink.com 1.10,2013-11-23 15:34:00,
2013-11-23 09:49:00,45.8,43.0,30.36,NW,321,8.0,-999.0,90,-99.99,,,0.00,weatherlink.com 1.10,2013-11-23 15:49:00,
2013-11-23 10:04:00,45.8,43.0,30.37,North,355,7.0,-999.0,90,-99.99,,,0.00,weatherlink.com 1.10,2013-11-23 16:04:00,
2013-11-23 10:19:00,45.5,43.0,30.37,North,10,7.0,-999.0,90,-99.99,,,0.00,weatherlink.com 1.10,2013-11-23 16:19:00,
2013-11-23 10:34:00,45.4,43.0,30.36,NNW,348,7.0,-999.0,90,-99.99,,,0.00,weatherlink.com 1.10,2013-11-23 16:34:00,
2013-11-23 10:49:00,45.5,43.0,30.36,NNW,346,5.0,-999.0,90,-99.99,,,0.00,weatherlink.com 1.10,2013-11-23 16:49:00,
2013-11-23 11:04:00,46.0,43.0,30.36,NNW,338,7.0,-999.0,89,-99.99,,,0.00,weatherlink.com 1.10,2013-11-23 17:04:00,
2013-11-23 11:19:00,46.6,43.0,30.35,North,360,8.0,-999.0,87,-99.99,,,0.00,weatherlink.com 1.10,2013-11-23 17:19:00,
2013-11-23 11:34:00,46.9,43.0,30.34,North,5,7.0,-999.0,87,-99.99,,,0.00,weatherlink.com 1.10,2013-11-23 17:34:00,
2013-11-23 11:49:00,46.3,43.0,30.34,NNW,347,8.0,-999.0,87,-99.99,,,0.00,weatherlink.com 1.10,2013-11-23 17:49:00,
2013-11-23 12:04:00,46.5,42.0,30.34,NNW,340,11.0,-999.0,84,-99.99,,,0.00,weatherlink.com 1.10,2013-11-23 18:04:00,
2013-11-23 12:19:00,46.8,42.0,30.34,North,360,9.0,-999.0,84,-99.99,,,0.00,weatherlink.com 1.10,2013-11-23 18:19:00,
2013-11-23 12:34:00,47.0,42.0,30.33,NW,314,9.0,-999.0,83,-99.99,,,0.00,weatherlink.com 1.10,2013-11-23 18:34:00,
2013-11-23 13:04:00,47.2,41.0,30.33,North,355,10.0,-999.0,79,-99.99,,,0.00,weatherlink.com 1.10,2013-11-23 19:04:00,
2013-11-23 13:19:00,47.3,40.0,30.33,NW,309,16.0,-999.0,77,-99.99,,,0.00,weatherlink.com 1.10,2013-11-23 19:19:00,
2013-11-23 13:34:00,47.2,39.0,30.32,NNE,18,9.0,-999.0,74,-99.99,,,0.00,weatherlink.com 1.10,2013-11-23 19:34:00,
2013-11-23 13:49:00,47.6,40.0,30.33,NNE,25,9.0,-999.0,74,-99.99,,,0.00,weatherlink.com 1.10,2013-11-23 19:49:00,
2013-11-23 14:04:00,47.2,39.0,30.33,NNW,344,8.0,-999.0,74,-99.99,,,0.00,weatherlink.com 1.10,2013-11-23 20:04:00,
2013-11-23 14:19:00,47.5,39.0,30.34,NNW,331,10.0,-999.0,71,-99.99,,,0.00,weatherlink.com 1.10,2013-11-23 20:19:00,
2013-11-23 14:34:00,47.6,38.0,30.34,NW,318,7.0,-999.0,70,-99.99,,,0.00,weatherlink.com 1.10,2013-11-23 20:34:00,
2013-11-23 14:49:00,47.5,38.0,30.34,NNW,338,13.0,-999.0,70,-99.99,,,0.00,weatherlink.com 1.10,2013-11-23 20:49:00,
2013-11-23 15:04:00,47.5,38.0,30.35,NW,313,5.0,-999.0,70,-99.99,,,0.00,weatherlink.com 1.10,2013-11-23 21:04:00,
2013-11-23 15:19:00,47.0,38.0,30.35,NNW,340,5.0,-999.0,71,-99.99,,,0.00,weatherlink.com 1.10,2013-11-23 21:19:00,
2013-11-23 15:34:00,46.9,38.0,30.37,NW,326,9.0,-999.0,70,-99.99,,,0.00,weatherlink.com 1.10,2013-11-23 21:34:00,
2013-11-23 15:49:00,46.8,37.0,30.36,NNW,343,7.0,-999.0,69,-99.99,,,0.00,weatherlink.com 1.10,2013-11-23 21:49:00,
2013-11-23 16:04:00,46.8,36.0,30.36,NNW,340,6.0,-999.0,67,-99.99,,,0.00,weatherlink.com 1.10,2013-11-23 22:04:00,
2013-11-23 16:19:00,46.9,35.0,30.36,NNE,20,6.0,-999.0,64,-99.99,,,0.00,weatherlink.com 1.10,2013-11-23 22:19:00,
2013-11-23 16:34:00,46.5,34.0,30.36,NNW,335,9.0,-999.0,63,-99.99,,,0.00,weatherlink.com 1.10,2013-11-23 22:34:00,
2013-11-23 16:49:00,46.1,34.0,30.37,NNW,333,7.0,-999.0,64,-99.99,,,0.00,weatherlink.com 1.10,2013-11-23 22:49:00,
2013-11-23 17:04:00,45.3,34.0,30.38,North,355,10.0,-999.0,65,-99.99,,,0.00,weatherlink.com 1.10,2013-11-23 23:04:00,
2013-11-23 17:19:00,44.6,34.0,30.38,NW,319,6.0,-999.0,67,-99.99,,,0.00,weatherlink.com 1.10,2013-11-23 23:19:00,
2013-11-23 17:34:00,43.9,34.0,30.39,North,360,11.0,-999.0,68,-99.99,,,0.00,weatherlink.com 1.10,2013-11-23 23:34:00,
2013-11-23 17:49:00,43.1,34.0,30.39,North,355,8.0,-999.0,69,-99.99,,,0.00,weatherlink.com 1.10,2013-11-23 23:49:00,
2013-11-23 18:04:00,42.3,34.0,30.40,NW,325,5.0,-999.0,71,-99.99,,,0.00,weatherlink.com 1.10,2013-11-24 00:04:00,
2013-11-23 18:19:00,41.7,33.0,30.40,NNW,333,11.0,-999.0,70,-99.99,,,0.00,weatherlink.com 1.10,2013-11-24 00:19:00,
2013-11-23 18:34:00,41.1,33.0,30.41,NNW,330,7.0,-999.0,72,-99.99,,,0.00,weatherlink.com 1.10,2013-11-24 00:34:00,
2013-11-23 18:49:00,40.6,31.0,30.41,NNW,338,5.0,-999.0,69,-99.99,,,0.00,weatherlink.com 1.10,2013-11-24 00:49:00,
2013-11-23 19:04:00,40.4,31.0,30.41,North,349,8.0,-999.0,68,-99.99,,,0.00,weatherlink.com 1.10,2013-11-24 01:04:00,
2013-11-23 19:19:00,40.0,30.0,30.41,NNW,328,5.0,-999.0,67,-99.99,,,0.00,weatherlink.com 1.10,2013-11-24 01:19:00,
2013-11-23 19:34:00,39.7,29.0,30.41,NNE,20,10.0,-999.0,66,-99.99,,,0.00,weatherlink.com 1.10,2013-11-24 01:34:00,
2013-11-23 19:49:00,39.6,28.0,30.41,NW,325,8.0,-999.0,64,-99.99,,,0.00,weatherlink.com 1.10,2013-11-24 01:49:00,
2013-11-23 20:05:00,39.3,28.0,30.41,North,350,11.0,-999.0,63,-99.99,,,0.00,weatherlink.com 1.10,2013-11-24 02:05:00,
2013-11-23 20:20:00,39.2,27.0,30.41,NNW,346,8.0,-999.0,61,-99.99,,,0.00,weatherlink.com 1.10,2013-11-24 02:20:00,
2013-11-23 20:35:00,39.1,26.0,30.42,NNW,336,8.0,-999.0,59,-99.99,,,0.00,weatherlink.com 1.10,2013-11-24 02:35:00,
2013-11-23 20:50:00,38.9,25.0,30.42,NNW,346,10.0,-999.0,59,-99.99,,,0.00,weatherlink.com 1.10,2013-11-24 02:50:00,
2013-11-23 21:05:00,38.7,24.0,30.43,North,360,14.0,-999.0,56,-99.99,,,0.00,weatherlink.com 1.10,2013-11-24 03:05:00,
2013-11-23 21:20:00,38.2,24.0,30.43,NNW,343,7.0,-999.0,56,-99.99,,,0.00,weatherlink.com 1.10,2013-11-24 03:20:00,
2013-11-23 21:35:00,37.7,23.0,30.43,NNE,15,10.0,-999.0,56,-99.99,,,0.00,weatherlink.com 1.10,2013-11-24 03:35:00,
2013-11-23 21:50:00,37.3,23.0,30.43,NNW,329,7.0,-999.0,56,-99.99,,,0.00,weatherlink.com 1.10,2013-11-24 03:50:00,
2013-11-23 22:05:00,36.7,23.0,30.43,NNW,338,11.0,-999.0,58,-99.99,,,0.00,weatherlink.com 1.10,2013-11-24 04:05:00,
2013-11-23 22:20:00,36.5,22.0,30.44,North,351,15.0,-999.0,57,-99.99,,,0.00,weatherlink.com 1.10,2013-11-24 04:20:00,
2013-11-23 22:35:00,35.8,23.0,30.43,NNW,330,6.0,-999.0,59,-99.99,,,0.00,weatherlink.com 1.10,2013-11-24 04:35:00,
2013-11-23 22:50:00,35.1,23.0,30.43,NNW,344,6.0,-999.0,62,-99.99,,,0.00,weatherlink.com 1.10,2013-11-24 04:50:00,
2013-11-23 23:05:00,34.5,23.0,30.44,NW,310,9.0,-999.0,64,-99.99,,,0.00,weatherlink.com 1.10,2013-11-24 05:05:00,
2013-11-23 23:20:00,34.1,23.0,30.44,NW,326,6.0,-999.0,65,-99.99,,,0.00,weatherlink.com 1.10,2013-11-24 05:20:00,
2013-11-23 23:35:00,33.3,24.0,30.45,North,360,8.0,-999.0,68,-99.99,,,0.00,weatherlink.com 1.10,2013-11-24 05:35:00,
2013-11-23 23:50:00,32.5,24.0,30.45,NW,319,8.0,-999.0,71,-99.99,,,0.00,weatherlink.com 1.10,2013-11-24 05:50:00,